Temp
6 5 5 4 5 4 3 2 4 3 3 3 4 4 4 4 4 4 5 5 5 5 4 5 5 5 4 4 4 4 4 4
5 5 5 6 4 3 3 3 3 3 3 1 4 4 4 3 3 4 4 5 4 4 4 4 4 4 4 3 3 3 3 3
5 5 5 4 4 4 3 3 3 3 2 2 2 3 3 2 3 4 4 4 4 4 4 3 4 4 3 3 3 2 2 3
5 5 5 4 4 4 3 2 2 3 3 0 1 3 1 3 2 3 3 3 3 3 3 3 2 3 4 3 3 2 2 2
4 4 4 4 4 3 2 2 2 1 1 -1 0 1 2 2 2 2 3 3 3 3 2 3 2 2 2 3 3 2 2 2
4 4 4 4 4 3 2 2 1 0 0 -1 0 1 1 2 2 2 2 2 2 1 1 2 2 2 2 2 2 2 2 2
5 4 4 3 4 4 3 2 1 1 0 -1 1 0 -0 0 1 0 2 1 1 1 1 2 1 1 2 2 2 2 1 2
4 3 3 1 3 3 4 1 1 1 -1 -1 -1 -1 -1 -0 -1 -1 0 1 1 1 2 2 2 2 1 1 2 2 2 1
3 1 1 2 2 3 2 2 1 1 0 -2 -1 -0 -1 -1 -1 -1 -0 1 1 1 1 2 1 1 1 1 1 1 1 1
4 1 1 2 2 2 1 1 1 1 -1 -3 -2 -2 -2 -1 -1 -1 -0 0 0 1 1 1 1 1 1 1 1 1 1 1
2 1 2 1 1 1 1 1 1 1 -0 -1 -1 -2 -1 -2 -2 -2 -2 -0 -0 1 1 1 1 1 1 1 1 1 1 1
3 2 2 1 1 1 0 1 1 0 0 -0 -1 -2 -2 -2 -2 -2 -2 -1 -0 0 1 0 1 0 1 0 0 0 0 0
3 2 2 1 1 1 1 0 0 0 -0 -0 -1 -2 -2 -2 -2 -2 -2 -1 -0 0 1 0 0 -0 -0 -0 -0 -0 -0 -1
4 3 2 1 1 1 1 1 0 0 -1 -2 -2 -2 -2 -2 -2 -2 -2 -1 -0 0 0 -0 -0 -0 -0 -0 -0 -0 -0 -1
5 4 4 2 0 1 1 0 -0 -0 -1 -1 -1 -2 -2 -2 -2 -2 -2 -0 0 0 -0 -0 -1 -0 -0 -0 0 0 -0 -0
5 5 5 5 4 1 -0 -0 -0 -0 -0 -1 -1 -1 -1 -2 -2 -2 -1 0 0 0 -0 -0 -1 0 -0 -0 -1 -1 -1 0
5 5 5 5 5 4 3 1 0 0 -1 -1 -1 -2 -2 -2 -2 -2 -1 -0 -0 0 0 -1 -0 -0 -0 -0 -0 -1 -1 -1
5 5 5 5 5 5 4 4 3 3 2 1 0 -1 -1 -1 -1 -1 -1 -1 -2 -1 -1 -1 -0 -0 -0 -1 -1 -1 -1 -1
5 5 5 5 5 4 4 4 4 3 3 3 3 2 2 1 -0 -1 -1 -1 -0 -1 -2 -2 -1 -1 -0 -0 -0 -0 -1 -1
6 6 5 5 5 4 4 4 4 3 3 2 2 2 2 1 0 -0 -1 -1 -1 -1 -1 -1 -0 -1 -0 -0 -0 -1 -1 -1
Height
3098 3100 3104 3104 3106 3104 3105 3107 3108 3112 3117 3123 3131 3136 3140 3143 3147 3151 3153 3156 3157 3157 3159 3161 3161 3162 3163 3164 3165 3166 3166 3168
3093 3097 3096 3097 3099 3100 3099 3099 3100 3105 3110 3116 3128 3135 3138 3142 3145 3150 3154 3156 3158 3159 3160 3161 3161 3161 3162 3164 3165 3165 3166 3168
3091 3092 3093 3091 3093 3092 3087 3087 3091 3097 3103 3113 3124 3130 3135 3139 3143 3147 3153 3155 3157 3158 3158 3160 3162 3162 3162 3164 3165 3166 3167 3168
3086 3086 3089 3090 3088 3085 3080 3077 3083 3091 3101 3107 3117 3126 3130 3138 3141 3146 3151 3154 3157 3157 3159 3161 3163 3163 3163 3162 3165 3167 3168 3169
3083 3085 3085 3086 3085 3082 3082 3081 3082 3089 3097 3104 3116 3121 3131 3136 3140 3145 3149 3153 3156 3157 3157 3160 3163 3165 3165 3165 3166 3167 3168 3169
3079 3080 3082 3083 3085 3085 3086 3083 3085 3090 3097 3106 3115 3124 3130 3137 3141 3144 3148 3152 3155 3156 3156 3161 3163 3164 3164 3165 3166 3167 3168 3168
3075 3076 3078 3080 3082 3083 3084 3085 3088 3092 3096 3107 3115 3122 3129 3135 3140 3142 3147 3150 3154 3156 3161 3162 3162 3163 3163 3165 3166 3167 3167 3169
3071 3071 3073 3076 3078 3080 3082 3083 3088 3093 3099 3109 3114 3121 3129 3134 3137 3142 3146 3150 3152 3157 3159 3160 3161 3162 3163 3164 3165 3166 3166 3168
3068 3069 3072 3075 3077 3080 3083 3086 3090 3095 3098 3107 3116 3123 3126 3130 3139 3144 3147 3149 3150 3158 3158 3158 3160 3162 3163 3162 3163 3165 3166 3168
3065 3068 3070 3072 3076 3080 3084 3088 3091 3095 3099 3104 3110 3116 3125 3131 3137 3143 3147 3148 3153 3157 3156 3157 3159 3161 3161 3160 3161 3162 3164 3165
3063 3067 3069 3073 3076 3081 3085 3088 3093 3096 3099 3102 3106 3116 3123 3129 3136 3140 3145 3148 3152 3154 3154 3155 3157 3158 3158 3159 3159 3160 3161 3163
3062 3067 3068 3071 3077 3080 3082 3086 3091 3095 3100 3103 3110 3114 3118 3124 3130 3135 3141 3146 3150 3152 3152 3154 3155 3157 3156 3157 3157 3158 3158 3159
3063 3066 3069 3071 3075 3079 3082 3086 3090 3094 3099 3102 3107 3112 3118 3123 3129 3132 3138 3145 3147 3149 3150 3152 3154 3154 3155 3154 3155 3156 3156 3156
3063 3065 3067 3071 3074 3078 3082 3085 3089 3093 3096 3102 3105 3109 3116 3121 3127 3132 3137 3142 3144 3145 3148 3150 3150 3152 3151 3150 3151 3153 3151 3152
3067 3067 3068 3069 3072 3076 3078 3083 3086 3089 3094 3099 3104 3109 3114 3119 3125 3130 3135 3139 3141 3142 3145 3147 3148 3148 3147 3147 3147 3146 3147 3147
3071 3071 3071 3071 3071 3072 3074 3078 3084 3089 3095 3099 3104 3107 3113 3117 3123 3128 3132 3136 3136 3138 3140 3144 3143 3143 3143 3144 3142 3141 3139 3139
3072 3072 3073 3073 3074 3074 3073 3076 3081 3087 3093 3098 3102 3106 3112 3116 3119 3125 3127 3132 3133 3134 3136 3137 3137 3138 3138 3138 3137 3136 3134 3134
3073 3074 3074 3075 3077 3077 3078 3081 3085 3088 3091 3095 3099 3102 3107 3111 3115 3120 3123 3127 3128 3130 3130 3130 3133 3133 3134 3133 3132 3130 3128 3127
3071 3073 3075 3075 3077 3079 3082 3084 3086 3089 3092 3095 3099 3101 3104 3108 3113 3116 3119 3123 3123 3126 3125 3125 3126 3127 3127 3126 3125 3124 3122 3121
3067 3070 3073 3076 3078 3080 3082 3084 3086 3088 3091 3093 3096 3099 3103 3107 3110 3111 3113 3114 3115 3116 3117 3117 3117 3117 3118 3118 3117 3117 3115 3115
Wind_Speed
21 22 22 19 30 32 42 32 39 35 42 34 31 30 29 26 25 23 22 20 20 18 15 13 12 11 11 10 9 9 9 7
18 19 16 13 14 10 29 38 52 47 47 36 36 32 31 29 28 25 22 20 18 14 13 12 11 12 12 10 10 8 8 7
11 12 16 13 19 22 24 41 48 42 45 42 36 36 36 31 29 25 23 22 18 16 14 13 12 10 9 10 8 7 7 7
12 13 16 17 17 20 8 34 42 51 45 42 37 41 33 34 30 26 23 22 19 16 13 13 13 9 8 6 6 6 6 7
17 17 17 14 14 15 10 25 37 43 44 47 46 40 39 34 30 26 22 21 20 19 15 11 9 10 7 7 7 5 5 5
21 19 17 16 13 14 11 29 32 40 37 40 40 41 36 32 27 23 20 20 19 15 11 8 9 8 8 8 7 5 3 3
18 15 15 19 19 18 19 24 37 37 41 42 43 41 36 32 26 21 19 20 16 6 10 12 8 7 8 8 7 5 4 4
16 11 9 18 18 17 20 26 38 39 46 44 46 41 36 36 28 22 20 16 11 6 12 7 5 8 9 9 7 5 4 4
13 11 12 16 17 19 21 28 29 34 41 47 38 38 43 40 31 25 21 15 11 15 9 5 5 7 9 7 6 5 4 3
14 16 13 14 21 23 22 27 33 38 45 53 51 48 44 31 25 24 20 14 13 14 8 5 6 6 6 5 6 6 6 6
17 21 13 21 23 27 23 29 31 34 41 41 45 44 33 33 31 24 19 15 12 13 8 7 7 7 5 5 6 7 8 9
20 23 13 23 15 16 20 31 32 37 36 38 35 37 39 38 33 25 19 19 17 14 8 9 10 8 7 7 8 9 9 11
18 23 20 20 16 14 21 21 26 30 37 33 37 42 40 39 32 26 23 18 18 14 11 10 13 13 13 12 13 14 14 13
5 17 20 18 23 16 21 30 38 38 38 38 37 39 39 40 30 25 23 21 18 14 13 14 16 18 16 14 15 16 16 16
6 6 11 16 20 16 21 32 28 35 39 40 39 35 30 34 34 26 23 23 21 17 16 18 22 17 14 15 17 19 16 17
6 6 7 7 6 13 24 25 23 25 31 25 29 27 29 29 27 27 26 27 23 21 20 23 25 20 24 22 22 23 24 24
7 9 10 10 10 9 11 18 26 25 23 21 31 30 34 37 33 34 30 26 27 29 24 22 20 25 24 27 29 28 27 29
8 10 11 11 11 13 14 15 16 19 20 22 26 28 32 35 35 35 30 30 22 21 27 26 27 30 29 31 31 30 29 31
9 9 10 11 12 13 14 14 16 16 16 17 21 24 27 31 35 32 30 30 28 29 33 33 34 34 31 30 30 31 32 34
10 10 11 10 12 13 15 17 18 20 22 23 24 25 25 25 27 27 30 33 33 32 34 38 37 37 31 32 32 33 35 34
Wind_Direction
239 241 251 262 260 244 223 239 229 218 223 190 202 205 200 194 193 189 184 178 177 177 177 174 173 167 162 160 155 151 139 145
251 251 227 277 280 284 273 235 225 227 215 184 202 204 197 193 191 189 179 177 176 173 171 169 171 171 164 161 151 136 136 152
247 247 247 261 277 275 294 216 211 204 183 182 185 191 193 188 191 187 179 173 173 172 173 171 174 176 162 159 139 138 147 152
243 237 242 251 267 277 276 201 211 201 195 176 192 192 185 192 189 186 175 169 168 166 167 171 164 173 191 138 176 159 158 158
257 248 246 248 260 260 310 180 181 181 181 171 188 179 185 187 189 183 171 167 165 167 154 159 156 178 167 170 188 176 170 153
254 248 249 247 241 240 224 167 175 183 182 170 179 181 181 183 184 178 168 167 159 154 146 195 188 182 180 185 186 182 164 153
256 260 237 223 215 218 221 212 201 182 167 172 181 180 179 179 176 167 186 165 169 179 224 212 192 196 200 202 201 185 170 178
273 256 216 198 197 197 180 170 180 177 166 178 184 180 180 178 178 185 176 163 167 197 203 200 197 206 208 207 206 201 203 209
259 176 194 174 195 172 171 166 175 184 183 180 178 184 186 186 198 175 175 172 149 220 210 194 209 199 202 202 212 228 243 257
262 196 203 195 178 178 183 183 186 187 182 177 181 191 198 176 174 180 177 165 189 221 209 195 205 196 187 204 224 239 254 265
210 183 175 192 194 182 181 190 193 194 195 197 201 197 180 178 185 183 182 181 201 225 213 218 224 210 200 222 245 259 272 281
200 170 162 175 177 195 195 199 201 187 198 199 187 176 188 180 182 182 185 193 213 226 224 226 238 243 237 246 262 270 280 281
201 191 184 187 207 186 209 197 195 184 193 202 199 191 195 193 190 189 189 206 213 216 233 236 254 258 258 263 265 271 281 292
70 186 178 183 196 211 198 203 195 201 201 194 205 205 201 195 195 194 193 214 217 222 233 238 258 262 263 272 283 288 292 293
47 149 201 200 199 214 214 202 218 222 207 209 216 218 212 204 200 203 216 218 220 226 239 244 259 254 266 279 280 282 288 292
108 107 116 124 158 198 206 209 210 205 205 227 220 210 210 214 211 214 221 228 229 229 240 256 252 260 272 276 275 284 293 289
157 143 134 117 112 115 145 182 193 204 210 208 211 209 218 226 234 225 220 240 240 242 240 240 254 266 274 277 281 285 287 289
186 166 151 145 142 137 138 143 159 180 189 196 196 204 211 218 216 213 216 229 252 237 247 259 266 263 266 271 278 282 282 290
214 198 175 170 165 162 166 166 171 177 183 195 201 203 203 205 208 215 227 247 254 257 261 262 261 261 268 275 279 281 281 286
244 232 213 206 195 183 184 189 191 190 191 195 200 204 209 214 220 231 240 245 246 251 258 258 258 257 264 271 277 278 276 278